Regional Weather Roundup
Issued by NWS

Home | Current Version | Previous Version | Text Only | Print | Product List | Glossary On
Versions: 1 2 3 4 5 6 7 8 9 10 11 12 13 14 15 16 17 18 19 20 21 22 23 24 25 26 27 28 29 30 31 32 33 34 35 36 37 38 39 40 41 42 43 44 45 46 47 48 49 50
000
ASUS46 KSTO 301504
RWRCA

NORTHERN AND CENTRAL CA REGIONAL WEATHER ROUNDUP
NATIONAL WEATHER SERVICE SACRAMENTO CA
700 AM PST FRI JAN 30 2015

NOTE: FAIR INDICATES FEW OR NO CLOUDS BELOW 12,000 FEET WITH NO
SIGNIFICANT WEATHER AND/OR OBSTRUCTIONS TO VISIBILITY.

CAZ001-003-301600-
NORTHWEST AREA

CITY           SKY/WX    TMP DP  RH WIND       PRES   REMARKS
CRESCENT CITY  CLOUDY    49  48  97 CALM      30.16R
UKIAH          CLEAR     39  36  89 CALM      30.05F
$$

CAZ006-505>513-301600-
BAY AREA

CITY           SKY/WX    TMP DP  RH WIND       PRES   REMARKS
SANTA ROSA     FOG       38  37  97 CALM      30.01F VSB 1/2
SAN RAFAEL     N/A       47  MM  MM MISG
NAPA           FOG       38  38 100 CALM      30.03S VSB 1/4
CONCORD        CLEAR     43  40  89 SE5       30.03S
OAKLAND CITY   N/A       51  MM  MM MISG
OAKLAND        CLOUDY    52  50  93 E6        30.03S
SAN FRAN CITY  N/A       51  MM  96 MISG
SAN FRAN ARPT  PTCLDY    54  54 100 N5        30.02S
LIVERMORE      CLEAR     42  37  82 E3        30.02F
HAYWARD        CLOUDY    50  50 100 E3        30.02F
REDWOOD CITY   N/A       MM  MM  MM MISG
MOFFETT ARPT   CLOUDY    50  48  93 CALM      30.04S FOG
SAN JOSE ARPT  CLOUDY    50  48  93 CALM      30.03S FOG
$$
CAZ034-037-514>518-301600-
CENTRAL COAST

CITY           SKY/WX    TMP DP  RH WIND       PRES   REMARKS
WATSONVILLE    CLEAR     46  42  86 N3        30.03S
SALINAS        CLOUDY    47  43  86 CALM      30.03R
MONTEREY       CLOUDY    54  51  90 CALM      30.03S
SAN LUIS OBISP CLEAR     41  39  93 CALM      29.98S
SANTA MARIA    CLEAR     46  41  82 SE3       29.98S
$$
CAZ015-016-301600-
NORTHERN SACRAMENTO VALLEY

CITY           SKY/WX    TMP DP  RH WIND       PRES   REMARKS
REDDING        CLEAR     59  38  45 N14       30.04S
RED BLUFF      CLEAR     52  39  61 NW9       30.03S
OROVILLE       CLEAR     43  40  89 E3        30.01F
$$
CAZ016>018-301600-
SOUTHERN SACRAMENTO VALLEY

CITY           SKY/WX    TMP DP  RH WIND       PRES   REMARKS
AUBURN         CLEAR     37  36  93 CALM      30.00S
BEALE AFB      CLEAR     40  40 100 CALM      29.99S
LINCOLN        FAIR      36  36 100 CALM      30.00R
MARYSVILLE     CLEAR     39  37  92 CALM      30.01S FOG
SAC INTL ARPT  FOG       39  38  96 CALM      30.01S VSB 1/4
MATHER AIRPORT CLEAR     39  39 100 CALM      30.01S
DOWNTOWN SAC   N/A       43  MM  MM MISG
SAC EXEC ARPT  FOG       39  37  93 CALM      30.02R VSB 1/4
VACAVILLE      CLEAR     40  38  93 CALM      30.02S
TRAVIS AFB     CLEAR     42  41  96 CALM      30.00S
$$
CAZ019>021-301600-
SAN JOAQUIN VALLEY

CITY           SKY/WX    TMP DP  RH WIND       PRES   REMARKS
STOCKTON       MOCLDY    38  37  97 CALM      30.00S FOG
MODESTO        FOG       40  39  97 CALM      30.01S VSB 1/4
MERCED         FOG       45  43  93 CALM      30.01S VSB<1/4
LEMOORE        FOG       39  38  96 CALM      30.02S VSB 1/16
FRESNO         FOG       45  44  97 CALM      30.01S VSB 1/8
HANFORD        FOG       44  44 100 N3        30.01S VSB<1/4
PORTERVILLE    CLOUDY    46  45  93 CALM      30.01R VSB<1/4
BAKERSFIELD    CLOUDY    51  49  92 CALM      30.00S FOG
$$
CAZ011-012-071-301600-
NORTHERN MOUNTAINS

CITY           SKY/WX    TMP DP  RH WIND       PRES   REMARKS
YREKA          FOG       23  22  96 CALM      30.21R VSB 1/4
MOUNT SHASTA   CLEAR     42  34  73 VRB6      30.15S
ALTURAS        PTCLDY    23  20  88 N3        30.19S FOG
$$
CAZ011-012-071-301600-
SIERRA NEVADA MTNS

CITY           SKY/WX    TMP DP  RH WIND       PRES   REMARKS
BLUE CANYON    CLEAR     43  29  57 VRB7      30.06F
TRUCKEE        FOG       27  27 100 CALM      30.13S VSB 1/4
TAHOE VLY ARPT PTCLDY    31  27  85 SW3       30.10F
MAMMOTH LAKES  CLOUDY    36  32  87 W7        30.10S WCI  30
$$



USA.gov is the U.S. government's official web portal to all federal, state and local government web resources and services.